247  
SXUS52 KTAE 250018  
OSOTAE  
OSOTAE  
NORTH FLORIDA/SOUTH ALABAMA/SOUTHWEST GEORGIA WEATHER ROUNDUP  
NATIONAL WEATHER SERVICE TALLAHASSEE FLORIDA  
800 PM EDT TUE APR 24 2018  
 
NOTE: "FAIR" INDICATES FEW OR NO CLOUDS BELOW 12,000 FEET WITH NO  
SIGNIFICANT WEATHER AND/OR OBSTRUCTIONS TO VISIBILITY.  
 
!FLZ017-115-028-034-025-250100   
..NORTH FLORIDA
 
 
 
CITY SKY/WX TMP DP RH WIND PRES REMARKS  
TALLAHASSEE MOCLDY 72 56 57 W8 29.89R  
APALACHICOLA FAIR 69 59 70 W12 29.92S  
PERRY FAIR 69 61 75 S7 29.90S  
CROSS CITY FAIR 67 60 78 SW6 29.92R  
JACKSONVILLE MOCLDY 72 58 61 W6 29.86R  

 
 
!FLZ112-006-005-002-011-250100   
..FLORIDA PANHANDLE
 
 
 
CITY SKY/WX TMP DP RH WIND PRES REMARKS  
MARIANNA LGT RAIN 70 59 68 W10 29.90R  
BONIFAY CLOUDY 68 61 78 CALM 29.93R  
PANAMA CITY NW CLOUDY 68 59 73 SW10 29.91R  
TYNDALL AFB FAIR 69 59 71 W16 29.92S  
TYND DRONE APT FAIR 68 60 75 W7 29.92  
DE FUNIAK SPR MOCLDY 68 55 62 NW12 29.93R  
EGLIN AFB MOCLDY 70 61 74 W9 29.91  
DESTIN CLOUDY 73 61 65 MISG 29.91S  
HURLBURT MOCLDY 70 62 76 W10 29.91R  
CRESTVIEW FAIR 69 52 54 NW13 29.94R  
PENSACOLA FAIR 71 55 56 N14 29.94R  

 
 
!ALZ063-066-250100   
..SOUTH ALABAMA
 
 
 
CITY SKY/WX TMP DP RH WIND PRES REMARKS  
DOTHAN MOCLDY 67 53 61 NW13 29.94R  
OZARK CAIRNS CLEAR 66 55 69 NW9 29.91R  
FT RUCKER HELI FAIR 65 55 71 NW6 29.91S  
RUCKER HELI 3 FAIR 65 55 69 NW8 29.91S  
RUCKER HELI 2 FAIR 65 55 71 W5 29.90S  
FLORALA APT CLOUDY 66 54 65 VRB3 29.95R  
ANDALUSIA FAIR 68 53 58 W10 29.93R  
TROY FAIR 64 55 72 W5 29.92S  
EUFALA FAIR 65 55 70 W5 29.89R  
MOBILE FAIR 70 54 56 N10 29.97R  

 
 
!GAZ120>161-250100   
..SOUTHWEST AND SOUTH CENTRAL GEORGIA
 
 
 
CITY SKY/WX TMP DP RH WIND PRES REMARKS  
THOMASVILLE CLOUDY 70 59 68 CALM 29.89S  
BAINBRIDGE N/A 72 61 68 W6 29.90R  
MOODY AFB CLOUDY 70 54 56 NW7 29.87R  
VALDOSTA CLOUDY 67 57 70 CALM 29.88R  
MOULTRIE CLOUDY 70 57 64 CALM 29.90R  
BLAKELY MOCLDY 70 55 60 W6 29.90R  
ALBANY CLOUDY 69 57 65 W6 29.90R  
TIFTON CLOUDY 69 57 65 W6 29.88R  
FITZGERALD CLOUDY 70 58 65 W3 29.89S  
CORDELE FAIR 72 56 58 W7 29.88S  
AMERICUS FAIR 66 50 55 W13 29.89S  
HOMERVILLE FAIR 70 54 56 W6 29.88R  

 
 
!GMZ750-755-770-775-250100   
..COASTAL AND BUOY OBS
 
 
 
STATION/POSITION TIME TEMP WIND PRES VSBY WAVE  
AIR SEA DIR/SP/G HT/PER  
(UTC) (F) (DEG/KT/KT) (MB) (MI) (FT/S)  
KEATON BEACH NOT AVBL  
CEDAR KEY 0000 68 280/ 10/ 16 1013.7R  
C TOWER NOT AVBL  
APALACHICOLA BUO NOT AVBL  
PANAMA CITY BUOY 2350 70 74 260/ 12/ 14 1013.8F 2/ 5  
MOBILE BUOY 0000 73 250/ 12/ 16 1014.3  
ORANGE BCH AL BU 0000 70 260/ 14/ 16 1013.6  

 
 
 
CLICK HERE TO GO TO PREVIOUS BULLETINS.

The Nexlab FL Page
The Nexlab GA Page
The Nexlab AL Page Main Text Page